[[{"header":{"parameterUnit":"m.s-1","parameterCategory":1,"la1":30.2991,"la2":30.254,"lo1":-89.0895,"lo2":-89.0444,"dy":0.0017,"dx":0.0017,"nx":28,"ny":28,"refTime":"2024-12-23T09:00:00:Z","depth":0,"parameterNumber":2,"parameterNumberName":"U-component_of_WINDS"},"data":[0,0,0,0,0,0,0,0,0,0,0,0,0,0,0,0,0,0,0,0,0,0,0,0,0,0,0,0,0,0,0,0,0,0,0,0,0,0,0,0,0,0,0,0,0,0,0,0,0,0,0,0,0,0,0,0,0,0,-4.5175,-4.5176,0,-4.5234,-4.5235,-4.5235,-4.512,-4.5116,-4.5112,-4.5109,-4.5172,-4.5177,-4.5183,0,0,0,0,0,0,0,0,0,0,0,0,0,-4.4968,-4.4972,-4.5175,-4.5176,-4.5177,-4.5234,-4.5235,-4.5235,-4.5121,-4.5116,-4.5111,-4.5107,-4.5171,-4.5177,-4.5183,0,0,0,0,0,0,0,0,0,0,0,0,0,-4.5045,-4.4974,-4.5175,-4.5126,-4.5122,-4.5234,-4.5235,-4.5236,-4.5122,-4.5116,-4.511,-4.5105,-4.5169,-4.5176,-4.5184,-4.5347,0,0,-4.5208,-4.5211,0,0,0,0,0,0,0,0,-4.5041,-4.5053,-4.5133,-4.513,-4.5126,-4.5164,-4.5185,-4.5273,-4.5123,-4.5122,-4.5109,-4.5102,-4.5174,-4.5181,-4.5205,-4.535,-4.5352,-4.5209,-4.5213,-4.5217,-4.5219,0,0,0,0,0,0,0,-4.5036,-4.505,-4.5198,-4.5134,-4.513,-4.5103,-4.5107,-4.5201,-4.518,-4.5122,-4.5113,-4.5122,-4.5171,-4.5198,-4.5206,-4.5353,-4.5208,-4.5215,-4.522,-4.5223,-4.5637,-4.5643,0,0,0,0,0,0,-4.5036,-4.5046,-4.5197,-4.52,-4.5068,-4.5111,-4.5116,-4.5157,-4.5178,-4.5176,-4.5127,-4.5116,-4.5187,-4.5197,-4.5207,-4.5401,-4.5217,-4.5224,-4.5229,-4.5631,-4.5639,-4.5645,0,0,0,0,0,0,-4.5032,-4.5051,-4.5194,-4.5121,-4.5137,-4.5121,-4.5168,-4.5161,-4.5188,-4.5182,-4.5178,-4.5157,-4.5183,-4.5196,-4.5313,-4.5402,-4.5228,-4.5235,-4.5624,-4.5633,-4.5642,-4.5789,0,0,0,0,0,0,-4.5027,-4.505,-4.511,-4.5123,-4.5142,-4.5298,-4.5173,-4.5167,-4.5201,-4.5188,-4.521,-4.5208,-4.5179,-4.5302,-4.5321,-4.5409,-4.5241,-4.5616,-4.5628,-4.5639,-4.5776,-4.5803,-4.5825,0,0,0,0,0,-4.502,-4.515,-4.5114,-4.5133,-4.5217,-4.5303,-4.5314,-4.5278,-4.5209,-4.527,-4.5267,-4.5207,-4.5389,-4.5315,-4.5335,-4.5428,-4.561,-4.5624,-4.5638,-4.5766,-4.5797,-4.5824,0,0,0,0,0,0,-4.5149,-4.5151,-4.5111,-4.5249,-4.5277,-4.5284,-4.536,-4.5313,-4.5362,-4.5348,-4.5302,-4.5308,-4.5434,-4.5442,-4.536,-4.5587,-4.5488,-4.5507,-4.5578,-4.5608,-4.5632,-4.5628,-4.5248,0,0,0,0,0,-4.5193,-4.5262,-4.526,-4.5382,-4.5398,-4.5377,-4.5414,-4.5384,-4.5411,-4.5423,-4.5427,-4.5458,-4.5522,-4.5565,-4.5623,-4.5776,-4.5781,-4.585,-4.5874,-4.5894,-4.5912,-4.5996,-4.6027,-4.5692,-4.5692,-4.5691,0,0,-4.5286,-4.5295,-4.5342,-4.5409,-4.5427,-4.5501,-4.5388,-4.5471,-4.5526,-4.5435,-4.5546,-4.5552,-4.5582,-4.5719,-4.5779,-4.5729,-4.6005,-4.5912,-4.5928,-4.5935,-4.6014,-4.6045,-4.6074,-4.5701,-4.5699,-4.5698,0,0,-4.5493,-4.5506,-4.561,-4.5631,-4.5659,-4.5645,-4.567,-4.5685,-4.5684,-4.5795,-4.5729,-4.5795,-4.5905,-4.593,-4.5958,-4.6176,-4.6124,-4.6197,-4.6324,-4.6407,-4.6433,-4.6456,-4.6537,-4.6566,-4.6214,-4.6214,-4.6214,0,-4.5605,-4.5713,-4.567,-4.5758,-4.579,-4.5711,-4.5817,-4.584,-4.5887,-4.5912,-4.5855,-4.5993,-4.6008,-4.615,-4.6204,-4.6228,-4.6257,-4.6195,-4.6432,-4.6455,-4.6476,-4.6553,-4.6583,-4.6223,-4.6222,-4.6221,-4.622,0,-4.585,-4.5926,-4.6007,-4.6054,-4.6095,-4.6192,-4.6166,-4.6213,-4.618,-4.6172,-4.6287,-4.6302,-4.6363,-4.6394,-4.6362,-4.6533,-4.6502,-4.6439,-4.6339,-4.6518,-4.6589,-4.6618,-4.6236,-4.6232,-4.623,-4.6228,0,0,-4.614,-4.6163,-4.6194,-4.6215,-4.6242,-4.63,-4.6394,-4.6453,-4.6496,-4.6531,-4.6611,-4.6707,-4.665,-4.6681,-4.6651,-4.6724,-4.6899,-4.6653,-4.6653,-4.67,-4.7091,-4.714,-4.7174,-4.6864,-4.6869,-4.6873,-4.7089,0,-4.6347,-4.6508,-4.6474,-4.6633,-4.6704,-4.663,-4.6712,-4.6739,-4.6734,-4.6795,-4.679,-4.686,-4.6778,-4.6797,-4.6865,-4.6863,-4.6977,-4.6847,-4.694,-4.6943,-4.6936,-4.721,-4.7261,-4.7464,-4.7117,-4.7121,-4.7125,0,-4.661,-4.6656,-4.6822,-4.6839,-4.6867,-4.6942,-4.6994,-4.7053,-4.7082,-4.7074,-4.711,-4.7067,-4.7162,-4.7059,-4.7191,-4.7104,-4.7139,-4.7145,-4.7152,-4.716,-4.7046,-4.7229,-4.7528,-4.7559,-4.7167,-4.7164,-4.7161,0,-4.6809,-4.6911,-4.7024,-4.7044,-4.7066,-4.7121,-4.7133,-4.7156,-4.7194,-4.724,-4.7265,-4.7322,-4.7354,-4.74,-4.7375,-4.7302,-4.7513,-4.7407,-4.7511,-4.7512,-4.756,-4.7558,-4.7871,-4.758,-4.7579,-4.7579,-4.7578,0,-4.7045,-4.715,-4.7114,-4.7184,-4.73,-4.726,-4.7377,-4.738,-4.7402,-4.7472,-4.7412,-4.748,-4.7441,-4.7506,-4.7487,-4.7601,-4.7615,-4.7613,-4.7607,-4.762,-4.762,-4.7644,-4.763,-4.7587,-4.7585,-4.7584,-4.7582,0,-4.7286,-4.7266,-4.7385,-4.7396,-4.7401,-4.7487,-4.7497,-4.7563,-4.7554,-4.7645,-4.7664,-4.765,-4.7724,-4.7703,-4.7783,-4.777,-4.7916,-4.789,-4.7906,-4.7901,-4.8006,-4.7998,-4.8347,-4.8392,-4.807,-4.8073,-4.8076,0,-4.7439,-4.7518,-4.7538,-4.7581,-4.7597,-4.7666,-4.7705,-4.7669,-4.7712,-4.7753,-4.7815,-4.7883,-4.7936,-4.8059,-4.8057,-4.8119,-4.8097,-4.8215,-4.8106,-4.8117,-4.8101,-4.8098,-4.8107,-4.8238,-4.8241,-4.8244,-4.8247,0,-4.7714,-4.77,-4.7758,-4.7814,-4.7862,-4.7904,-4.794,-4.7979,-4.7945,-4.7998,-4.8072,-4.8114,-4.8196,-4.8266,-4.8323,-4.8336,-4.8288,-4.8281,-4.8309,-4.8323,-4.833,-4.833,-4.7968,-4.8273,-4.8271,-4.8269,-4.8267,-4.8266,-4.7917,-4.7985,-4.801,-4.8077,-4.8101,-4.8137,-4.82,-4.8199,-4.8261,-4.8324,-4.8299,-4.8386,-4.8415,-4.8486,-4.8507,-4.8576,-4.8531,-4.857,-4.8581,-4.8592,-4.8606,-4.8318,-4.8586,-4.8585,-4.8584,-4.8584,-4.8583,0,-4.819,-4.8203,-4.8265,-4.8318,-4.8372,-4.832,-4.8358,-4.8407,-4.8484,-4.8514,-4.8568,-4.8655,-4.8723,-4.8727,-4.8791,-4.8846,-4.8825,-4.8864,-4.8861,-4.8865,-4.8641,-4.8612,-4.888,-4.888,-4.888,-4.888,-4.888,-4.888,-4.8339,-4.8452,-4.8442,-4.8567,-4.8578,-4.8662,-4.8689,-4.8723,-4.8747,-4.8847,-4.8903,-4.8905,-4.8926,-4.8991,-4.9052,-4.9052,-4.9079,-4.9127,-4.9119,-4.891,-4.8881,-4.8853,-4.8825,-4.9133,-4.9133,-4.9337,-4.9339,-4.9341]},{"header":{"parameterUnit":"m.s-1","parameterCategory":1,"la1":30.2991,"la2":30.254,"lo1":-89.0895,"lo2":-89.0444,"dy":0.0017,"dx":0.0017,"nx":28,"ny":28,"refTime":"2024-12-23T09:00:00:Z","depth":0,"parameterNumber":3,"parameterNumberName":"V-component_of_WINDS"},"data":[0,0,0,0,0,0,0,0,0,0,0,0,0,0,0,0,0,0,0,0,0,0,0,0,0,0,0,0,0,0,0,0,0,0,0,0,0,0,0,0,0,0,0,0,0,0,0,0,0,0,0,0,0,0,0,0,0,0,-1.1992,-1.1992,0,-1.1999,-1.1999,-1.1999,-1.1931,-1.193,-1.1928,-1.1926,-1.1935,-1.1937,-1.1939,0,0,0,0,0,0,0,0,0,0,0,0,0,-1.1921,-1.1923,-1.1992,-1.1992,-1.1992,-1.1998,-1.1999,-1.1999,-1.1932,-1.1929,-1.1927,-1.1925,-1.1934,-1.1937,-1.1939,0,0,0,0,0,0,0,0,0,0,0,0,0,-1.1942,-1.1923,-1.1992,-1.1959,-1.1956,-1.1998,-1.1999,-1.1999,-1.1932,-1.1929,-1.1927,-1.1924,-1.1934,-1.1936,-1.1939,-1.2014,0,0,-1.1948,-1.195,0,0,0,0,0,0,0,0,-1.1941,-1.1945,-1.1964,-1.1961,-1.1958,-1.1961,-1.1977,-1.2004,-1.1933,-1.1941,-1.1926,-1.1923,-1.1946,-1.1948,-1.1955,-1.2014,-1.2014,-1.1949,-1.1951,-1.1952,-1.1953,0,0,0,0,0,0,0,-1.194,-1.1944,-1.1994,-1.1964,-1.1961,-1.1944,-1.1944,-1.1982,-1.1959,-1.194,-1.1936,-1.1937,-1.1944,-1.1953,-1.1955,-1.2015,-1.1949,-1.1951,-1.1953,-1.1954,-1.2134,-1.2137,0,0,0,0,0,0,-1.1942,-1.1943,-1.1994,-1.1994,-1.1943,-1.1948,-1.1948,-1.1963,-1.1959,-1.1955,-1.194,-1.1934,-1.1949,-1.1952,-1.1955,-1.2042,-1.1952,-1.1955,-1.1956,-1.2131,-1.2135,-1.2138,0,0,0,0,0,0,-1.1941,-1.1948,-1.1994,-1.1968,-1.1972,-1.1952,-1.197,-1.1965,-1.1973,-1.1958,-1.1954,-1.1952,-1.1947,-1.1951,-1.1999,-1.2041,-1.1956,-1.1959,-1.2128,-1.2132,-1.2136,-1.2216,0,0,0,0,0,0,-1.1939,-1.1948,-1.1976,-1.1969,-1.1974,-1.2038,-1.1972,-1.1967,-1.1978,-1.1971,-1.1969,-1.1966,-1.1945,-1.1995,-1.2002,-1.2044,-1.1961,-1.2124,-1.213,-1.2135,-1.221,-1.2223,-1.2234,0,0,0,0,0,-1.1937,-1.1998,-1.1977,-1.1984,-1.2008,-1.2041,-1.2044,-1.2018,-1.1982,-1.201,-1.2,-1.1966,-1.2035,-1.2001,-1.2008,-1.2051,-1.2121,-1.2128,-1.2135,-1.2204,-1.222,-1.2234,0,0,0,0,0,0,-1.2012,-1.1997,-1.1974,-1.2034,-1.2039,-1.2029,-1.2064,-1.2035,-1.2051,-1.2044,-1.2011,-1.2011,-1.2065,-1.2063,-1.2025,-1.2123,-1.2072,-1.2081,-1.2123,-1.2138,-1.215,-1.215,-1.1963,0,0,0,0,0,-1.2035,-1.2062,-1.2048,-1.2103,-1.2106,-1.2085,-1.2098,-1.2077,-1.2081,-1.2083,-1.2077,-1.2082,-1.2105,-1.2121,-1.2141,-1.2208,-1.2207,-1.2242,-1.2254,-1.2264,-1.2272,-1.2308,-1.2323,-1.216,-1.216,-1.216,0,0,-1.2084,-1.2079,-1.2098,-1.2117,-1.2119,-1.2148,-1.2087,-1.212,-1.2142,-1.2088,-1.2134,-1.2129,-1.2133,-1.2191,-1.2217,-1.2191,-1.2316,-1.2272,-1.2281,-1.2283,-1.2316,-1.2332,-1.2345,-1.2165,-1.2164,-1.2163,0,0,-1.2188,-1.2187,-1.2232,-1.2234,-1.2237,-1.2222,-1.2233,-1.2227,-1.2222,-1.2266,-1.2227,-1.2251,-1.2291,-1.2296,-1.2303,-1.2407,-1.2377,-1.2415,-1.2479,-1.2514,-1.2527,-1.2538,-1.2576,-1.259,-1.2423,-1.2423,-1.2423,0,-1.2249,-1.229,-1.226,-1.2295,-1.2305,-1.2256,-1.2303,-1.2306,-1.2316,-1.2324,-1.2294,-1.2343,-1.2342,-1.2401,-1.2426,-1.2433,-1.2445,-1.2416,-1.2527,-1.2538,-1.2548,-1.2584,-1.2598,-1.2428,-1.2427,-1.2427,-1.2426,0,-1.2365,-1.2395,-1.2431,-1.244,-1.2454,-1.2495,-1.247,-1.2487,-1.2465,-1.2453,-1.2499,-1.2496,-1.2515,-1.2527,-1.2506,-1.2583,-1.2567,-1.2533,-1.2482,-1.2569,-1.2602,-1.2615,-1.2434,-1.2433,-1.2431,-1.243,0,0,-1.2518,-1.2509,-1.2523,-1.2526,-1.2524,-1.2547,-1.2585,-1.2602,-1.2618,-1.2625,-1.2657,-1.2691,-1.266,-1.2668,-1.2647,-1.2678,-1.2761,-1.264,-1.2639,-1.2663,-1.2846,-1.2872,-1.2888,-1.2739,-1.2742,-1.2744,-1.2845,0,-1.262,-1.2685,-1.2658,-1.2725,-1.2752,-1.2706,-1.2739,-1.2742,-1.2731,-1.2753,-1.2741,-1.2766,-1.2722,-1.2727,-1.2755,-1.2745,-1.2797,-1.2737,-1.277,-1.2771,-1.2772,-1.2905,-1.2934,-1.303,-1.2858,-1.286,-1.2862,0,-1.2749,-1.276,-1.2831,-1.2823,-1.2833,-1.2864,-1.2877,-1.2898,-1.29,-1.289,-1.2899,-1.2871,-1.2908,-1.2855,-1.2906,-1.2866,-1.2877,-1.2874,-1.2877,-1.2881,-1.2823,-1.2914,-1.306,-1.3075,-1.2882,-1.288,-1.2879,0,-1.2854,-1.2888,-1.2934,-1.2938,-1.2931,-1.2953,-1.2951,-1.295,-1.2962,-1.2973,-1.2981,-1.2997,-1.3006,-1.3019,-1.2996,-1.296,-1.305,-1.2996,-1.3044,-1.3045,-1.3067,-1.3066,-1.3218,-1.3072,-1.3072,-1.3072,-1.3071,0,-1.2972,-1.3017,-1.2981,-1.301,-1.3059,-1.3026,-1.3076,-1.3069,-1.3068,-1.3094,-1.3055,-1.3081,-1.3047,-1.307,-1.3052,-1.3097,-1.3101,-1.3095,-1.309,-1.3099,-1.31,-1.3108,-1.3101,-1.3075,-1.3075,-1.3074,-1.3073,0,-1.3099,-1.3077,-1.3124,-1.3113,-1.3111,-1.3148,-1.3138,-1.3164,-1.315,-1.3184,-1.319,-1.3168,-1.3193,-1.317,-1.3194,-1.3181,-1.3242,-1.3227,-1.3242,-1.3238,-1.3288,-1.3284,-1.3451,-1.3472,-1.3311,-1.3313,-1.3314,0,-1.3177,-1.321,-1.3202,-1.3216,-1.3216,-1.324,-1.3252,-1.3221,-1.3235,-1.3239,-1.3264,-1.3285,-1.33,-1.3342,-1.3329,-1.3346,-1.3332,-1.3389,-1.3334,-1.3343,-1.3334,-1.3333,-1.3336,-1.3401,-1.3403,-1.3404,-1.3406,0,-1.3316,-1.3303,-1.3321,-1.3336,-1.335,-1.336,-1.3367,-1.3381,-1.3349,-1.3366,-1.339,-1.3402,-1.3425,-1.3447,-1.346,-1.3458,-1.3427,-1.3422,-1.3435,-1.3446,-1.3453,-1.3451,-1.3273,-1.3419,-1.3418,-1.3417,-1.3416,-1.3416,-1.3422,-1.3449,-1.3447,-1.3469,-1.347,-1.3477,-1.3501,-1.3489,-1.3508,-1.3525,-1.3505,-1.3535,-1.3535,-1.3549,-1.3551,-1.3574,-1.355,-1.3567,-1.3572,-1.3577,-1.3585,-1.3448,-1.3576,-1.3575,-1.3575,-1.3575,-1.3574,0,-1.356,-1.3556,-1.3576,-1.3586,-1.3603,-1.357,-1.3576,-1.3592,-1.3619,-1.3621,-1.3636,-1.3664,-1.3684,-1.3672,-1.3689,-1.371,-1.3696,-1.3716,-1.3715,-1.3715,-1.3605,-1.3593,-1.3727,-1.3727,-1.3727,-1.3726,-1.3726,-1.3726,-1.3635,-1.3679,-1.3666,-1.3711,-1.3706,-1.3735,-1.374,-1.3747,-1.3748,-1.3781,-1.3797,-1.3788,-1.3785,-1.3801,-1.3819,-1.3814,-1.3823,-1.3848,-1.3839,-1.3737,-1.3723,-1.3708,-1.3697,-1.385,-1.385,-1.3947,-1.3948,-1.3949]}]]